Home   Weather   Toronto   Past weeks
Flag for Canada

Past Weather in Toronto, Ontario, Canada — Yesterday and Last 2 Weeks

Now
41 °F

Partly sunny.


Feels Like: 31 °F
Forecast: 42 / 37 °F
Wind: 24 mph from East

Location: Toronto Pearson International Airport

Current Time: Mar 28, 2020 at 2:58:46 pm

Latest Report: Mar 28, 2020 at 2:00 pm


Visibility: 15 mi

Pressure: 29.91 "Hg

Humidity: 87%

Dew Point: 37 °F

Location of TorontoLocation

Past Weather in Toronto — Graph

°F

Toronto Temperature Yesterday

Maximum temperature yesterday: 46 °F (at 2:00 pm)
Minimum temperature yesterday: 36 °F (at 2:00 am)
Average temperature yesterday: 39 °F

High & Low Weather Summary for the Past Weeks

 TemperatureHumidityPressure
High64 °F (Mar 20, 10:00 am)100% (Mar 20, 12:25 am)30.72 "Hg (Mar 20, 12:25 am)
Low18 °F (Mar 21, 7:00 am)22% (Mar 15, 3:00 pm)29.54 "Hg (Mar 20, 10:00 am)
Average37 °F70%30.20 "Hg
* Reported Mar 13 1:00 pm — Mar 28 1:37 pm, Toronto. Weather by CustomWeather, © 2020

Note: Actual official high and low records may vary slightly from our data, if they occured in-between our weather recording intervals... More about our weather records

Toronto Weather History for the Previous 24 Hours

Scroll right to see more
 ConditionsComfort  
Time TempWeatherWind HumidityBarometerVisibility
1:37 pm
Sat, Mar 28
41 °FMostly cloudy.17 mph87%29.93 "Hg15 mi
1:00 pm41 °FLight rain. Mostly cloudy.18 mph87%29.94 "Hg10 mi
12:00 pm39 °FLight rain. Mostly cloudy.18 mph87%29.95 "Hg10 mi
11:00 am39 °FLight rain. Overcast.23 mph87%29.95 "Hg10 mi
10:00 am41 °FLight rain. Overcast.10 mph70%29.98 "Hg15 mi
9:00 am43 °FCloudy.16 mph61%29.98 "Hg15 mi
8:00 am39 °FMostly cloudy.12 mph75%29.98 "Hg15 mi
7:00 am39 °FMostly cloudy.16 mph75%29.95 "Hg15 mi
6:00 am39 °FOvercast.20 mph75%29.95 "Hg15 mi
5:00 am39 °FOvercast.15 mph75%29.96 "Hg15 mi
4:00 am37 °FOvercast.14 mph81%30.00 "Hg15 mi
3:00 am37 °FPassing clouds.14 mph81%30.02 "Hg15 mi
2:00 am37 °FPassing clouds.13 mph75%30.03 "Hg15 mi
1:00 am37 °FPassing clouds.9 mph81%30.06 "Hg15 mi
12:00 am39 °FPassing clouds.9 mph70%30.06 "Hg15 mi
11:00 pm
Fri, Mar 27
39 °FPassing clouds.12 mph75%30.08 "Hg15 mi
10:00 pm41 °FPassing clouds.5 mph70%30.07 "Hg15 mi
9:00 pm41 °FPassing clouds.3 mph70%30.06 "Hg15 mi
8:00 pm41 °FPassing clouds.3 mph70%30.05 "Hg15 mi
7:00 pm43 °FPassing clouds.14 mph66%30.04 "Hg15 mi
6:00 pm45 °FPassing clouds.10 mph66%30.03 "Hg15 mi
5:00 pm46 °FPassing clouds.9 mph62%30.01 "Hg15 mi
4:00 pm46 °FPassing clouds.8 mph62%30.00 "Hg15 mi
3:00 pm45 °FPassing clouds.13 mph66%30.02 "Hg15 mi
2:00 pm46 °FPassing clouds.8 mph66%30.03 "Hg15 mi
Weather by CustomWeather, © 2020

See weather overview

Advertising